Temp
16 16 18 19 19 20 20 20 20 20 19 19 18 18 18 18 18 18 18 17 17 16 15 15 14 14 14 14 14 13 12 12 12 11 11 11 11 11 11 10 10 10 10
15 15 16 18 19 20 20 20 20 20 20 19 18 17 17 17 17 18 18 17 17 17 16 15 14 14 14 14 13 13 12 12 11 10 7 6 8 10 10 10 9 9 9
16 16 16 18 19 20 20 21 20 19 17 17 16 16 16 16 16 17 17 17 16 15 16 16 15 15 14 13 14 13 12 11 11 10 10 4 5 4 9 9 9 8 8
17 16 17 17 19 19 18 18 17 17 16 15 15 14 14 13 15 14 15 15 15 15 14 13 13 14 12 12 12 12 11 10 9 7 8 7 7 4 5 7 7 7 7
14 14 16 16 16 16 16 16 15 14 14 14 14 14 13 13 12 13 13 13 14 13 13 12 11 11 10 10 10 9 9 8 8 7 5 5 5 6 4 3 4 5 5
14 14 15 15 15 15 15 15 15 15 15 15 14 12 12 12 12 12 12 12 12 12 12 11 10 9 8 8 7 7 6 5 5 4 4 3 3 2 2 1 2 3 4
11 11 10 12 13 14 15 15 14 14 13 13 12 12 12 11 11 12 12 11 11 11 10 9 7 6 5 4 4 4 3 3 3 2 2 2 1 0 -0 -0 1 2 3
10 9 10 12 13 13 14 13 13 12 12 12 11 11 11 10 11 11 10 10 10 8 6 5 4 4 3 3 3 2 3 2 2 1 0 -0 0 0 0 2 2 2 2
9 10 11 13 14 14 13 12 12 11 11 11 10 10 10 10 10 11 11 9 8 6 4 4 4 4 4 4 3 2 1 0 0 -0 0 0 1 1 2 2 2 1 1
10 11 12 13 13 12 12 11 11 10 10 10 10 9 9 9 9 10 9 7 6 4 4 5 5 5 5 4 3 2 2 1 2 2 2 2 2 2 2 2 2 2 1
11 10 11 12 12 12 11 11 10 10 10 9 9 8 8 8 8 7 6 5 4 5 5 5 4 5 5 4 3 3 3 3 3 3 2 2 2 2 2 1 1 1 0
10 10 11 11 11 12 11 11 10 10 9 8 8 7 7 6 5 5 4 4 4 4 4 3 4 4 3 3 3 3 3 2 2 2 2 1 1 0 -0 -0 -1 -1 -1
10 10 11 11 11 11 11 10 10 9 8 7 7 6 5 5 4 4 3 3 3 3 1 1 2 2 3 3 3 2 2 1 1 1 0 -0 -1 -1 -1 -1 -2 -2 -2
12 11 9 10 10 10 10 9 9 8 7 6 6 5 4 3 2 1 1 1 1 1 1 2 2 2 2 2 1 1 0 -0 -1 -1 -1 -2 -2 -3 -3 -3 -3 -4 -4
9 9 9 10 10 9 9 8 7 6 6 5 5 4 3 2 1 1 1 1 1 2 1 2 2 1 1 0 -0 -1 -1 -1 -2 -2 -2 -3 -3 -3 -3 -4 -4 -4 -4
8 9 10 10 10 8 7 6 6 6 5 5 4 3 3 2 2 2 2 1 1 1 0 1 1 0 -0 -1 -1 -2 -3 -3 -3 -4 -4 -4 -5 -4 -5 -5 -4 -4 -4
9 9 9 8 6 5 5 5 5 5 4 4 4 3 2 2 2 2 2 1 1 1 0 -0 -1 -1 -2 -3 -3 -4 -4 -4 -5 -5 -5 -5 -5 -5 -5 -5 -5 -4 -4
7 7 6 5 4 3 3 4 4 4 3 3 2 2 3 3 3 2 1 1 0 -0 -1 -2 -2 -3 -3 -3 -4 -5 -5 -5 -5 -5 -5 -6 -6 -6 -6 -5 -5 -5 -5
6 5 4 3 3 4 3 3 3 3 3 2 2 2 2 2 1 1 0 -0 -1 -2 -2 -3 -3 -4 -4 -4 -5 -5 -5 -5 -5 -5 -6 -6 -6 -5 -5 -5 -5 -5 -5
6 5 3 3 3 3 3 3 3 3 3 2 2 1 1 1 0 -1 -1 -2 -3 -3 -3 -4 -4 -5 -5 -5 -5 -6 -6 -6 -6 -6 -6 -6 -5 -5 -5 -5 -5 -4 -4
5 3 3 2 3 3 3 3 3 2 2 2 1 1 0 -1 -2 -2 -3 -3 -3 -4 -4 -5 -5 -5 -5 -5 -5 -6 -6 -6 -6 -6 -6 -5 -5 -5 -5 -5 -5 -6 -6
4 3 2 3 2 2 2 2 2 2 1 1 0 -0 -1 -2 -3 -3 -3 -4 -4 -5 -5 -5 -5 -5 -6 -6 -6 -7 -6 -6 -6 -6 -5 -5 -5 -6 -6 -6 -6 -6 -6
3 2 2 2 2 2 2 2 2 2 1 -0 -1 -1 -2 -3 -4 -4 -4 -5 -5 -5 -6 -6 -7 -7 -7 -7 -6 -6 -6 -6 -6 -6 -6 -6 -6 -6 -6 -6 -7 -6 -6
2 2 2 2 2 2 2 2 1 1 -0 -1 -2 -2 -3 -4 -4 -4 -4 -5 -5 -6 -6 -7 -7 -7 -8 -8 -7 -7 -7 -7 -6 -6 -7 -7 -7 -7 -7 -7 -7 -7 -7
3 2 2 1 2 2 2 1 0 -0 -1 -2 -2 -3 -3 -4 -4 -4 -5 -5 -5 -6 -6 -7 -7 -7 -8 -8 -7 -7 -7 -7 -7 -7 -8 -8 -9 -9 -9 -8 -8 -8 -8
3 2 2 1 1 1 0 -0 -1 -1 -2 -3 -3 -4 -4 -4 -5 -5 -5 -5 -6 -6 -7 -7 -7 -7 -8 -8 -8 -8 -8 -8 -8 -8 -9 -10 -10 -11 -10 -10 -9 -8 -8
Height
806 804 802 803 806 810 813 815 816 817 817 818 818 818 817 816 815 813 811 811 810 809 808 807 806 806 806 804 804 804 804 804 804 805 804 804 804 804 805 806 805 805 807
806 804 803 804 806 808 810 812 813 815 815 816 816 817 816 815 813 811 809 807 806 804 802 800 799 799 798 798 797 796 796 797 799 799 800 801 798 797 798 800 800 800 802
808 806 806 805 806 808 809 811 813 814 815 816 816 816 815 813 811 809 806 804 802 800 798 795 792 790 789 787 787 788 788 789 791 793 795 800 797 796 794 794 794 795 796
811 809 807 807 808 811 812 812 813 815 816 817 816 815 813 811 807 805 802 800 797 793 790 788 785 782 782 780 779 780 782 784 785 789 790 788 788 791 793 791 791 791 791
814 815 814 814 813 814 814 815 816 816 816 815 813 811 808 806 802 799 794 791 789 786 782 779 777 775 774 774 775 776 777 780 783 783 787 788 788 787 788 789 787 786 786
817 817 817 817 817 817 817 817 815 814 812 811 810 808 806 802 798 794 790 785 782 778 774 770 768 767 768 769 771 770 773 775 780 779 785 786 790 791 791 788 786 786 780
819 820 819 819 819 818 817 816 815 814 814 812 809 806 803 800 795 789 783 780 775 772 769 765 763 764 766 769 771 772 773 777 778 782 785 780 784 788 789 789 787 785 780
826 825 824 822 822 820 819 818 816 815 813 810 807 803 800 797 793 787 781 777 773 770 767 766 764 766 768 770 772 773 774 775 776 779 780 780 781 783 785 785 784 780 777
831 828 826 823 820 820 820 819 817 814 810 806 805 802 798 793 787 780 777 772 769 769 768 770 768 768 769 769 770 771 772 773 774 776 777 778 779 779 779 780 781 778 772
833 830 826 824 823 823 822 820 817 814 809 805 800 796 794 790 785 778 773 769 767 768 769 770 770 768 767 766 767 769 770 770 771 771 772 772 773 772 772 773 772 771 769
833 829 824 822 820 819 817 814 810 806 801 798 796 793 789 783 777 774 772 770 771 771 770 770 770 767 766 766 765 767 768 768 768 768 768 767 767 765 765 765 764 763 763
830 826 823 821 818 815 812 808 805 802 800 798 794 790 785 780 774 770 770 772 775 773 773 770 770 769 768 766 766 765 766 765 765 764 762 761 760 759 758 758 757 757 756
826 822 818 817 815 813 809 806 803 800 797 795 791 786 782 777 775 774 774 773 773 772 771 770 770 769 768 766 764 763 763 763 761 759 757 756 755 754 754 752 750 749 748
823 822 821 818 815 810 804 801 797 795 793 790 788 784 781 777 777 775 775 773 772 771 770 770 768 768 766 764 763 761 759 758 756 754 753 751 750 748 746 744 742 741 740
825 823 820 815 810 806 803 800 796 793 790 786 784 783 780 778 777 775 774 775 774 771 769 768 766 765 764 762 760 758 756 753 751 748 747 745 743 741 739 737 735 734 733
825 821 817 812 808 805 802 798 795 791 787 783 783 783 779 778 776 776 774 772 772 769 767 766 764 763 761 759 757 754 751 748 746 743 740 738 736 733 731 729 728 728 726
820 816 813 812 811 807 804 798 793 788 785 782 780 780 779 777 775 774 772 770 769 767 765 764 762 760 758 756 753 750 747 743 741 738 734 731 728 726 724 721 720 718 717
820 818 816 813 809 804 799 796 791 787 783 780 780 780 777 775 773 772 771 770 768 766 763 761 759 758 756 753 749 745 741 738 736 732 728 725 721 719 717 714 710 708 706
819 817 816 811 803 798 796 792 793 787 784 781 780 779 777 775 773 771 770 768 766 764 762 760 758 755 751 748 744 741 737 733 729 726 722 719 716 713 711 707 702 698 695
818 815 811 808 802 797 792 791 789 787 785 783 782 780 778 775 773 771 769 767 765 763 760 758 755 752 748 744 740 737 732 727 724 721 717 713 710 706 703 699 694 689 686
812 811 809 805 800 797 792 788 786 786 786 784 781 779 776 774 772 770 768 765 763 761 758 755 752 749 745 740 737 733 729 725 720 715 711 707 704 701 696 692 688 683 680
808 807 804 800 798 794 790 788 786 787 785 782 780 778 776 773 771 769 766 764 761 759 755 752 748 745 741 738 733 730 726 722 716 711 706 702 699 695 689 685 681 676 672
804 802 799 798 798 793 790 786 785 784 782 781 779 776 774 771 769 767 764 762 759 756 752 749 744 740 737 733 729 725 722 717 711 707 703 699 695 690 686 681 676 671 667
800 799 797 795 793 791 788 785 783 782 781 779 777 775 772 770 768 766 763 760 757 754 751 747 743 738 735 731 726 722 717 712 708 704 701 697 693 689 685 680 675 671 666
797 796 794 792 788 787 785 782 781 780 779 777 775 773 771 768 766 764 762 759 757 754 750 746 743 738 734 730 726 721 716 711 707 703 700 696 692 688 684 680 676 671 666
792 792 791 788 783 783 782 780 778 778 776 774 773 771 768 766 764 762 758 758 755 752 749 746 742 738 735 729 725 719 715 710 706 703 701 698 695 692 687 683 678 673 668
Wind_Speed
3 4 7 12 16 16 16 19 16 15 14 16 16 16 20 20 20 19 20 23 26 27 28 29 29 27 28 29 28 25 24 23 20 14 15 17 16 16 15 10 6 3 8
3 5 9 11 14 16 18 17 17 16 16 18 18 15 16 19 20 23 24 26 28 32 33 34 35 35 34 34 33 31 30 27 23 11 4 2 5 12 19 15 8 7 3
5 4 5 10 13 15 16 15 15 15 15 16 19 20 22 25 28 30 31 33 33 33 37 41 43 44 42 42 41 39 37 30 27 26 8 2 5 0 8 11 9 5 7
3 3 6 9 10 7 9 11 11 12 11 9 11 13 17 22 27 29 31 32 33 36 37 38 40 47 47 44 44 43 39 35 25 17 20 8 4 3 2 4 5 13 5
6 7 8 8 6 6 8 8 8 10 12 17 20 23 24 26 29 31 32 32 28 26 25 26 29 36 40 39 36 32 28 26 16 7 5 5 3 5 4 3 3 15 11
7 8 10 10 12 14 15 16 17 18 21 25 26 27 27 29 31 33 32 31 30 29 27 24 22 24 23 20 18 15 14 12 9 8 2 3 3 3 4 2 3 10 15
7 7 11 16 18 20 21 21 23 24 29 30 27 25 26 28 33 35 35 33 30 26 23 17 9 7 11 13 13 11 9 6 6 7 7 6 7 8 11 10 13 6 12
8 8 11 14 16 21 23 23 25 25 28 27 24 21 22 29 34 35 36 32 24 17 8 7 15 15 12 9 8 10 10 7 5 6 8 7 8 11 13 16 9 8 8
7 7 9 13 19 22 22 19 22 21 21 23 20 21 25 29 31 31 31 28 15 6 13 12 9 7 6 11 11 10 3 1 4 7 9 12 14 13 15 17 20 12 8
7 6 10 12 16 17 19 17 20 19 23 20 20 25 31 33 32 31 29 18 10 15 11 4 4 10 12 13 11 6 7 9 11 10 10 10 12 15 16 18 21 22 18
7 7 14 14 13 17 18 18 20 21 24 21 22 27 32 32 31 26 20 9 12 9 2 6 8 15 12 5 7 10 11 11 11 12 14 16 16 18 19 20 22 23 23
8 10 18 19 14 26 27 25 24 25 22 19 26 30 30 30 23 10 3 8 2 5 9 9 10 9 10 10 9 10 12 13 15 17 18 19 21 21 20 20 22 23 22
9 9 15 17 22 28 29 26 23 24 19 21 27 29 28 24 14 5 3 3 4 7 10 11 12 13 13 13 11 12 13 15 18 19 19 19 18 21 23 26 25 24 23
11 9 9 16 25 27 27 26 24 21 19 23 25 21 17 12 8 10 13 12 12 16 15 13 14 11 10 11 13 15 15 15 15 17 21 24 26 27 26 25 25 23 22
8 7 9 14 19 23 25 27 25 17 21 21 16 11 5 4 4 6 10 13 9 9 14 13 10 11 14 15 13 13 16 20 25 27 28 29 28 25 26 25 24 22 20
7 9 11 16 20 21 22 26 24 25 20 13 11 9 10 10 8 8 9 12 15 17 15 11 13 14 16 16 18 18 19 22 25 26 25 27 26 26 25 24 24 26 24
7 11 12 19 21 22 26 28 24 19 17 15 13 12 10 12 11 12 13 13 11 9 11 13 15 16 15 16 19 20 23 24 25 26 27 26 23 22 24 25 26 26 27
8 9 15 20 23 27 28 27 17 15 13 10 9 8 6 7 8 10 10 10 11 13 15 15 15 14 19 22 23 20 21 23 24 26 26 25 26 23 23 25 26 28 29
12 14 19 22 27 26 25 16 14 10 8 8 7 9 10 9 10 12 13 12 13 14 15 12 15 19 23 23 22 20 23 25 26 24 22 23 23 23 24 28 29 29 29
16 19 22 22 25 26 19 9 14 7 12 9 12 10 11 12 13 13 12 12 14 13 12 16 18 19 23 22 21 21 24 23 21 21 21 22 24 24 24 26 25 25 21
14 17 17 19 23 23 17 15 17 9 8 11 17 11 12 13 12 13 13 13 13 13 17 19 18 21 23 22 23 22 21 23 23 21 22 23 20 21 25 23 25 26 26
15 15 17 17 17 14 12 13 10 6 12 15 10 13 13 14 13 12 13 14 13 16 18 20 23 24 22 22 26 21 20 21 25 24 23 21 18 23 23 21 21 23 23
14 13 12 13 8 10 9 7 9 11 11 10 13 14 14 12 9 13 15 14 16 18 20 20 20 23 23 28 26 23 21 25 24 19 19 17 19 20 20 20 20 18 17
14 11 10 11 14 17 19 15 12 9 9 11 13 13 12 12 11 13 14 15 17 20 18 20 19 21 22 25 26 23 25 25 17 18 15 17 19 18 18 22 23 21 19
15 11 14 15 16 19 16 10 8 8 9 10 11 12 13 14 14 13 15 16 15 16 18 20 22 19 19 23 25 24 24 19 17 12 15 19 23 22 21 21 21 23 24
16 15 15 15 17 16 13 10 10 8 9 10 12 13 15 14 12 16 20 14 15 16 16 16 17 20 20 22 22 22 20 15 13 11 13 15 18 18 19 20 20 20 23
Wind_Direction
321 306 228 209 203 205 213 215 222 235 242 249 252 264 271 283 280 284 294 291 284 273 264 261 256 250 245 250 249 241 236 237 237 240 254 256 258 251 233 211 266 230 320
63 74 118 158 182 195 204 212 230 243 250 249 254 265 279 290 295 295 295 293 285 279 270 266 262 254 247 244 241 236 233 235 232 217 207 290 270 233 216 223 238 290 267
80 70 108 157 177 194 205 223 245 261 268 272 276 283 289 293 294 300 305 305 300 289 281 273 270 264 252 246 243 237 232 228 227 220 204 141 221 307 217 232 277 246 295
332 234 208 202 208 237 251 260 281 300 313 323 326 325 315 304 307 309 308 304 300 297 295 289 279 270 262 252 249 244 236 229 220 216 225 230 164 180 290 244 221 289 289
277 316 319 337 359 345 6 20 41 59 32 4 354 343 331 324 322 321 321 320 315 312 308 302 292 277 267 260 255 244 237 232 222 185 172 216 223 212 188 246 273 308 307
315 336 352 13 39 47 47 34 21 9 355 346 340 341 340 338 334 329 324 320 316 314 309 304 289 276 262 250 231 190 163 140 138 124 107 55 6 6 351 328 297 282 305
29 28 40 45 44 30 17 6 358 348 345 344 342 342 342 338 333 326 319 315 312 308 306 303 273 204 150 127 109 95 73 30 10 338 315 311 272 266 287 270 278 263 295
24 40 39 44 26 9 3 358 352 340 337 338 333 334 337 336 329 323 320 313 305 298 286 163 133 116 92 66 45 17 354 341 318 282 288 297 288 269 266 260 261 286 271
21 30 25 13 4 355 348 341 336 324 326 330 325 332 336 337 330 322 312 305 289 216 152 132 108 72 37 360 359 344 344 296 304 279 281 272 278 274 271 267 264 250 287
350 336 334 334 346 341 338 327 332 330 330 331 334 333 330 328 322 314 301 286 224 172 149 110 353 330 335 336 330 318 297 281 276 272 264 266 275 280 280 277 275 268 256
297 289 291 294 305 335 331 333 335 333 336 334 328 325 326 326 321 308 297 250 176 161 193 315 332 334 325 317 293 291 288 292 299 298 297 293 292 286 285 282 276 267 259
280 284 292 298 315 337 335 333 332 331 325 318 323 325 328 328 319 310 240 168 250 339 351 5 349 334 323 320 314 307 305 302 299 298 296 293 294 289 289 284 279 277 271
307 304 325 325 328 327 326 317 319 322 317 318 325 329 331 331 325 338 18 43 23 358 352 351 336 317 306 297 305 307 307 302 298 294 288 288 291 291 290 289 282 277 274
321 324 322 319 315 314 315 320 315 318 321 326 328 333 345 3 54 57 34 29 11 357 341 329 303 299 306 314 313 308 303 296 291 291 291 295 297 295 290 283 277 276 272
328 321 312 315 315 311 315 321 319 321 328 331 337 342 6 2 324 338 335 344 343 312 318 316 317 317 318 322 319 313 307 301 299 298 300 300 299 290 284 281 279 274 266
321 320 311 306 323 331 329 330 330 326 326 327 331 317 325 325 336 318 313 302 302 300 301 307 318 323 322 318 313 310 308 300 296 294 295 296 294 292 288 282 277 273 271
321 310 324 335 336 332 332 323 322 330 330 324 325 316 323 310 324 321 307 301 304 312 318 320 322 320 320 322 316 310 302 301 300 299 297 295 291 289 285 280 278 276 273
309 324 339 333 329 325 324 328 331 341 354 20 18 4 1 322 315 317 326 325 322 323 324 322 321 323 321 322 318 314 309 307 304 303 303 297 295 289 289 288 280 273 269
321 344 334 332 336 340 339 336 334 348 352 332 327 321 325 335 341 336 332 329 325 323 322 323 323 325 324 328 322 321 318 314 310 311 302 297 294 296 294 288 282 279 273
335 328 332 336 337 335 332 329 338 307 328 342 349 340 341 337 335 333 331 325 324 324 328 325 326 328 328 329 328 327 322 313 309 307 298 296 293 298 304 298 293 292 287
324 329 331 336 331 329 330 315 318 301 343 340 325 316 330 337 334 330 330 332 333 333 328 329 330 331 336 332 334 328 322 314 307 304 304 304 309 311 311 306 298 289 290
323 326 324 324 337 349 353 2 26 4 320 307 323 333 333 333 333 338 340 339 334 331 333 334 332 337 339 337 336 328 324 319 315 307 311 315 321 325 324 322 315 310 301
306 321 324 330 336 346 348 338 313 308 311 330 334 334 331 335 339 345 344 337 335 337 337 337 328 329 338 339 342 340 329 323 319 322 324 330 330 333 340 345 338 343 339
307 310 306 301 305 314 323 315 311 313 321 332 335 339 339 339 329 339 344 340 341 338 338 333 328 327 338 336 339 336 335 333 334 332 340 350 354 355 352 353 356 358 353
304 286 284 288 301 310 311 315 314 313 322 333 339 338 332 326 328 333 342 339 341 337 333 333 332 332 337 330 334 337 337 339 339 346 5 6 5 359 354 347 349 358 360
297 293 291 286 301 308 300 302 308 307 318 325 334 339 336 336 336 333 331 338 337 336 336 333 335 333 331 333 340 344 343 351 359 18 10 1 358 355 348 347 349 354 353